Time,TemperatureF,DewpointF,PressureIn,WindDirection,WindDirectionDegrees,WindSpeedMPH,WindSpeedGustMPH,Humidity,HourlyPrecipIn,Conditions,Clouds,dailyrainin,SolarRadiationWatts/m^2,SoftwareType,DateUTC
2013-01-01 00:00:00,38.2,28.6,29.80,WSW,248,7.0,17.0,68,0.00,,---,0.00,0.00,VWS V14.01,2013-01-01 05:00:00,
2013-01-01 00:05:00,38.5,28.9,29.81,West,270,7.0,17.0,68,0.00,,---,0.00,0.00,VWS V14.01,2013-01-01 05:05:00,
2013-01-01 00:10:00,38.9,29.2,29.80,West,270,10.0,19.0,68,0.00,,---,0.00,0.00,VWS V14.01,2013-01-01 05:10:00,
2013-01-01 00:15:00,39.1,29.1,29.80,West,270,10.0,20.0,67,0.00,,---,0.00,0.00,VWS V14.01,2013-01-01 05:15:00,
2013-01-01 00:20:00,39.3,29.3,29.80,West,270,9.0,21.0,67,0.00,,---,0.00,0.00,VWS V14.01,2013-01-01 05:20:00,
2013-01-01 00:25:00,39.5,29.1,29.80,West,270,13.0,23.0,66,0.00,,---,0.00,0.00,VWS V14.01,2013-01-01 05:25:00,
2013-01-01 00:30:00,39.7,29.3,29.80,West,270,12.0,26.0,66,0.00,,---,0.00,0.00,VWS V14.01,2013-01-01 05:30:00,
2013-01-01 00:35:00,39.6,29.2,29.80,West,270,11.0,22.0,66,0.00,,---,0.00,0.00,VWS V14.01,2013-01-01 05:35:00,
2013-01-01 00:40:00,39.6,29.2,29.79,West,270,13.0,22.0,66,0.00,,---,0.00,0.00,VWS V14.01,2013-01-01 05:40:00,
2013-01-01 00:45:00,39.5,28.7,29.79,West,270,13.0,25.0,65,0.00,,---,0.00,0.00,VWS V14.01,2013-01-01 05:45:00,
2013-01-01 00:50:00,39.5,28.7,29.79,West,270,12.0,27.0,65,0.00,,---,0.00,0.00,VWS V14.01,2013-01-01 05:50:00,
2013-01-01 00:55:00,39.3,29.3,29.78,West,270,11.0,25.0,67,0.00,,---,0.00,0.00,VWS V14.01,2013-01-01 05:55:00,
2013-01-01 01:00:00,39.3,29.3,29.79,West,270,13.0,24.0,67,0.00,,---,0.00,0.00,VWS V14.01,2013-01-01 06:00:00,
2013-01-01 01:05:00,39.3,29.3,29.79,West,270,14.0,25.0,67,0.00,,---,0.00,0.00,VWS V14.01,2013-01-01 06:05:00,
2013-01-01 01:10:00,39.3,29.6,29.79,West,270,13.0,28.0,68,0.00,,---,0.00,0.00,VWS V14.01,2013-01-01 06:10:00,
2013-01-01 01:15:00,39.3,29.3,29.79,West,270,14.0,30.0,67,0.00,,---,0.00,0.00,VWS V14.01,2013-01-01 06:15:00,
2013-01-01 01:20:00,39.1,28.7,29.79,West,270,12.0,22.0,66,0.00,,---,0.00,0.00,VWS V14.01,2013-01-01 06:20:00,
2013-01-01 01:25:00,39.1,29.1,29.79,West,270,13.0,22.0,67,0.00,,---,0.00,0.00,VWS V14.01,2013-01-01 06:25:00,
2013-01-01 01:30:00,39.2,29.2,29.79,West,270,12.0,27.0,67,0.00,,---,0.00,0.00,VWS V14.01,2013-01-01 06:30:00,
2013-01-01 01:35:00,39.3,29.3,29.80,West,270,10.0,23.0,67,0.00,,---,0.00,0.00,VWS V14.01,2013-01-01 06:35:00,
2013-01-01 01:40:00,39.3,28.9,29.80,West,270,12.0,22.0,66,0.00,,---,0.00,0.00,VWS V14.01,2013-01-01 06:40:00,
2013-01-01 01:45:00,39.4,29.4,29.79,West,270,14.0,25.0,67,0.00,,---,0.00,0.00,VWS V14.01,2013-01-01 06:45:00,
2013-01-01 01:50:00,39.4,29.7,29.79,West,270,13.0,21.0,68,0.00,,---,0.00,0.00,VWS V14.01,2013-01-01 06:50:00,
2013-01-01 01:55:00,39.3,29.3,29.80,West,270,12.0,23.0,67,0.00,,---,0.00,0.00,VWS V14.01,2013-01-01 06:55:00,
2013-01-01 02:00:00,39.2,29.2,29.80,West,270,12.0,30.0,67,0.00,,---,0.00,0.00,VWS V14.01,2013-01-01 07:00:00,
2013-01-01 02:05:00,39.3,29.6,29.80,West,270,13.0,28.0,68,0.00,,---,0.00,0.00,VWS V14.01,2013-01-01 07:05:00,
2013-01-01 02:10:00,39.2,28.8,29.80,West,270,12.0,21.0,66,0.00,,---,0.00,0.00,VWS V14.01,2013-01-01 07:10:00,
2013-01-01 02:15:00,39.2,29.2,29.80,West,270,13.0,25.0,67,0.00,,---,0.00,0.00,VWS V14.01,2013-01-01 07:15:00,
2013-01-01 02:20:00,39.2,29.2,29.80,West,270,12.0,21.0,67,0.00,,---,0.00,0.00,VWS V14.01,2013-01-01 07:20:00,
2013-01-01 02:25:00,39.2,29.2,29.80,West,270,11.0,25.0,67,0.00,,---,0.00,0.00,VWS V14.01,2013-01-01 07:25:00,
2013-01-01 02:30:00,39.1,28.7,29.79,West,270,12.0,22.0,66,0.00,,---,0.00,0.00,VWS V14.01,2013-01-01 07:30:00,
2013-01-01 02:35:00,39.1,29.5,29.79,West,270,11.0,20.0,68,0.00,,---,0.00,0.00,VWS V14.01,2013-01-01 07:35:00,
2013-01-01 02:40:00,39.0,29.4,29.78,West,270,12.0,25.0,68,0.00,,---,0.00,0.00,VWS V14.01,2013-01-01 07:40:00,
2013-01-01 02:45:00,39.0,29.4,29.78,West,270,13.0,24.0,68,0.00,,---,0.00,0.00,VWS V14.01,2013-01-01 07:45:00,
2013-01-01 02:50:00,39.0,29.0,29.78,West,270,12.0,27.0,67,0.00,,---,0.00,0.00,VWS V14.01,2013-01-01 07:50:00,
2013-01-01 02:55:00,39.0,29.0,29.78,West,270,13.0,26.0,67,0.00,,---,0.00,0.00,VWS V14.01,2013-01-01 07:55:00,
2013-01-01 03:00:00,39.1,29.5,29.78,West,270,12.0,21.0,68,0.00,,---,0.00,0.00,VWS V14.01,2013-01-01 08:00:00,
2013-01-01 03:05:00,39.0,29.4,29.78,West,270,12.0,25.0,68,0.00,,---,0.00,0.00,VWS V14.01,2013-01-01 08:05:00,
2013-01-01 03:10:00,38.9,29.2,29.78,West,270,11.0,24.0,68,0.00,,---,0.00,0.00,VWS V14.01,2013-01-01 08:10:00,
2013-01-01 03:15:00,38.9,29.6,29.78,West,270,11.0,20.0,69,0.00,,---,0.00,0.00,VWS V14.01,2013-01-01 08:15:00,
2013-01-01 03:20:00,38.9,29.6,29.78,West,270,12.0,22.0,69,0.00,,---,0.00,0.00,VWS V14.01,2013-01-01 08:20:00,
2013-01-01 03:25:00,38.9,29.2,29.77,West,270,12.0,22.0,68,0.00,,---,0.00,0.00,VWS V14.01,2013-01-01 08:25:00,
2013-01-01 03:30:00,38.8,29.5,29.78,West,270,11.0,22.0,69,0.00,,---,0.00,0.00,VWS V14.01,2013-01-01 08:30:00,
2013-01-01 03:35:00,38.8,29.2,29.78,West,270,11.0,25.0,68,0.00,,---,0.00,0.00,VWS V14.01,2013-01-01 08:35:00,
2013-01-01 03:40:00,38.8,29.5,29.78,West,270,12.0,23.0,69,0.00,,---,0.00,0.00,VWS V14.01,2013-01-01 08:40:00,
2013-01-01 03:45:00,38.8,29.2,29.78,West,270,12.0,23.0,68,0.00,,---,0.00,0.00,VWS V14.01,2013-01-01 08:45:00,
2013-01-01 03:50:00,38.7,29.1,29.78,West,270,13.0,21.0,68,0.00,,---,0.00,0.00,VWS V14.01,2013-01-01 08:50:00,
2013-01-01 03:55:00,38.6,29.0,29.78,West,270,14.0,28.0,68,0.00,,---,0.00,0.00,VWS V14.01,2013-01-01 08:55:00,
2013-01-01 04:00:00,38.5,28.9,29.79,West,270,13.0,29.0,68,0.00,,---,0.00,0.00,VWS V14.01,2013-01-01 09:00:00,
2013-01-01 04:05:00,38.4,28.8,29.79,West,270,14.0,27.0,68,0.00,,---,0.00,0.00,VWS V14.01,2013-01-01 09:05:00,
2013-01-01 04:10:00,38.4,28.8,29.79,West,270,14.0,28.0,68,0.00,,---,0.00,0.00,VWS V14.01,2013-01-01 09:10:00,
2013-01-01 04:15:00,38.4,29.1,29.79,West,270,13.0,24.0,69,0.00,,---,0.00,0.00,VWS V14.01,2013-01-01 09:15:00,
2013-01-01 04:20:00,38.4,29.1,29.79,WNW,292,12.0,23.0,69,0.00,,---,0.00,0.00,VWS V14.01,2013-01-01 09:20:00,
2013-01-01 04:25:00,38.4,29.1,29.78,West,270,12.0,22.0,69,0.00,,---,0.00,0.00,VWS V14.01,2013-01-01 09:25:00,
2013-01-01 04:30:00,38.5,29.2,29.79,West,270,13.0,25.0,69,0.00,,---,0.00,0.00,VWS V14.01,2013-01-01 09:30:00,
2013-01-01 04:35:00,38.4,29.8,29.79,West,270,10.0,21.0,71,0.00,,---,0.00,0.00,VWS V14.01,2013-01-01 09:35:00,
2013-01-01 04:40:00,38.5,29.6,29.79,West,270,13.0,21.0,70,0.00,,---,0.00,0.00,VWS V14.01,2013-01-01 09:40:00,
2013-01-01 04:45:00,38.5,29.6,29.79,West,270,11.0,19.0,70,0.00,,---,0.00,0.00,VWS V14.01,2013-01-01 09:45:00,
2013-01-01 04:50:00,38.6,29.7,29.78,West,270,12.0,24.0,70,0.00,,---,0.00,0.00,VWS V14.01,2013-01-01 09:50:00,
2013-01-01 04:55:00,38.5,29.9,29.78,West,270,12.0,20.0,71,0.00,,---,0.00,0.00,VWS V14.01,2013-01-01 09:55:00,
2013-01-01 05:00:00,38.6,30.0,29.79,West,270,12.0,27.0,71,0.00,,---,0.00,0.00,VWS V14.01,2013-01-01 10:00:00,
2013-01-01 05:05:00,38.7,30.1,29.79,West,270,11.0,22.0,71,0.00,,---,0.00,0.00,VWS V14.01,2013-01-01 10:05:00,
2013-01-01 05:10:00,38.8,29.9,29.78,West,270,14.0,26.0,70,0.00,,---,0.00,0.00,VWS V14.01,2013-01-01 10:10:00,
2013-01-01 05:15:00,38.9,29.2,29.79,West,270,13.0,26.0,68,0.00,,---,0.00,0.00,VWS V14.01,2013-01-01 10:15:00,
2013-01-01 05:20:00,38.9,29.6,29.79,West,270,13.0,28.0,69,0.00,,---,0.00,0.00,VWS V14.01,2013-01-01 10:20:00,
2013-01-01 05:25:00,39.0,29.7,29.79,West,270,13.0,27.0,69,0.00,,---,0.00,0.00,VWS V14.01,2013-01-01 10:25:00,
2013-01-01 05:30:00,39.0,29.7,29.79,West,270,11.0,22.0,69,0.00,,---,0.00,0.00,VWS V14.01,2013-01-01 10:30:00,
2013-01-01 05:35:00,39.2,29.9,29.79,West,270,12.0,23.0,69,0.00,,---,0.00,0.00,VWS V14.01,2013-01-01 10:35:00,
2013-01-01 05:40:00,39.2,29.5,29.79,West,270,11.0,21.0,68,0.00,,---,0.00,0.00,VWS V14.01,2013-01-01 10:40:00,
2013-01-01 05:45:00,39.2,29.9,29.79,West,270,10.0,19.0,69,0.00,,---,0.00,0.00,VWS V14.01,2013-01-01 10:45:00,
2013-01-01 05:50:00,39.3,30.4,29.79,West,270,10.0,21.0,70,0.00,,---,0.00,0.00,VWS V14.01,2013-01-01 10:50:00,
2013-01-01 05:55:00,39.3,30.0,29.79,West,270,10.0,21.0,69,0.00,,---,0.00,0.00,VWS V14.01,2013-01-01 10:55:00,
2013-01-01 06:00:00,39.2,30.2,29.79,West,270,11.0,24.0,70,0.00,,---,0.00,0.00,VWS V14.01,2013-01-01 11:00:00,
2013-01-01 06:05:00,39.3,30.0,29.79,West,270,10.0,22.0,69,0.00,,---,0.00,0.00,VWS V14.01,2013-01-01 11:05:00,
2013-01-01 06:10:00,39.3,30.0,29.79,West,270,10.0,23.0,69,0.00,,---,0.00,0.00,VWS V14.01,2013-01-01 11:10:00,
2013-01-01 06:15:00,39.2,29.9,29.79,West,270,11.0,20.0,69,0.00,,---,0.00,0.00,VWS V14.01,2013-01-01 11:15:00,
2013-01-01 06:20:00,39.2,29.9,29.79,West,270,12.0,23.0,69,0.00,,---,0.00,0.00,VWS V14.01,2013-01-01 11:20:00,
2013-01-01 06:25:00,39.3,30.0,29.80,West,270,12.0,21.0,69,0.00,,---,0.00,0.00,VWS V14.01,2013-01-01 11:25:00,
2013-01-01 06:30:00,39.3,30.0,29.80,West,270,10.0,19.0,69,0.00,,---,0.00,0.00,VWS V14.01,2013-01-01 11:30:00,
2013-01-01 06:35:00,39.3,30.0,29.80,West,270,11.0,24.0,69,0.00,,---,0.00,0.00,VWS V14.01,2013-01-01 11:35:00,
2013-01-01 06:40:00,39.3,30.4,29.80,West,270,11.0,20.0,70,0.00,,---,0.00,0.00,VWS V14.01,2013-01-01 11:40:00,
2013-01-01 06:45:00,39.3,30.4,29.80,West,270,10.0,22.0,70,0.00,,---,0.00,0.00,VWS V14.01,2013-01-01 11:45:00,
2013-01-01 06:50:00,39.3,30.0,29.80,West,270,10.0,20.0,69,0.00,,---,0.00,0.00,VWS V14.01,2013-01-01 11:50:00,
2013-01-01 06:55:00,39.2,29.9,29.79,West,270,11.0,24.0,69,0.00,,---,0.00,0.00,VWS V14.01,2013-01-01 11:55:00,
2013-01-01 07:00:00,39.1,29.8,29.79,WNW,292,9.0,16.0,69,0.00,,---,0.00,0.00,VWS V14.01,2013-01-01 12:00:00,
2013-01-01 07:05:00,38.9,30.0,29.80,West,270,9.0,18.0,70,0.00,,---,0.00,0.00,VWS V14.01,2013-01-01 12:05:00,
2013-01-01 07:10:00,39.0,29.7,29.80,West,270,10.0,24.0,69,0.00,,---,0.00,0.00,VWS V14.01,2013-01-01 12:10:00,
2013-01-01 07:15:00,39.0,30.1,29.79,West,270,11.0,22.0,70,0.00,,---,0.00,0.00,VWS V14.01,2013-01-01 12:15:00,
2013-01-01 07:28:00,39.0,30.1,29.79,West,270,11.0,22.0,70,0.00,,---,0.00,0.00,VWS V14.01,2013-01-01 12:28:00,
2013-01-01 07:30:00,39.0,30.1,29.79,West,276,19.0,20.0,70,0.00,,---,0.00,12.00,VWS V14.01,2013-01-01 12:30:00,
2013-01-01 07:33:00,39.0,30.1,29.79,WNW,288,11.0,19.0,70,0.00,,---,0.00,12.00,VWS V14.01,2013-01-01 12:33:00,
2013-01-01 07:35:00,39.0,29.4,29.80,NW,306,9.0,23.0,68,0.00,,---,0.00,16.00,VWS V14.01,2013-01-01 12:35:00,
2013-01-01 07:38:00,39.0,29.4,29.80,WNW,292,4.0,16.0,68,0.00,,---,0.00,18.00,VWS V14.01,2013-01-01 12:38:00,
2013-01-01 07:40:00,39.0,29.7,29.80,West,277,14.0,19.0,69,0.00,,---,0.00,18.00,VWS V14.01,2013-01-01 12:40:00,
2013-01-01 07:41:00,39.0,29.7,29.80,West,277,14.0,19.0,69,0.00,,---,0.00,18.00,VWS V14.01,2013-01-01 12:41:00,
2013-01-01 07:45:00,39.0,30.1,29.81,West,272,7.0,20.0,70,0.00,,---,0.00,19.00,VWS V14.01,2013-01-01 12:45:00,
2013-01-01 07:46:00,39.0,30.1,29.81,West,272,7.0,20.0,70,0.00,,---,0.00,19.00,VWS V14.01,2013-01-01 12:46:00,
2013-01-01 07:50:00,39.1,29.8,29.81,West,277,8.0,20.0,69,0.00,,---,0.00,30.00,VWS V14.01,2013-01-01 12:50:00,
2013-01-01 07:51:00,39.1,29.8,29.81,WNW,287,11.0,20.0,69,0.00,,---,0.00,30.00,VWS V14.01,2013-01-01 12:51:00,
2013-01-01 07:55:00,39.0,29.7,29.80,WNW,298,8.0,24.0,69,0.00,,---,0.00,28.00,VWS V14.01,2013-01-01 12:55:00,
2013-01-01 07:56:00,39.0,29.7,29.80,West,273,10.0,24.0,69,0.00,,---,0.00,28.00,VWS V14.01,2013-01-01 12:56:00,
2013-01-01 08:00:00,39.1,29.8,29.81,WNW,292,18.0,26.0,69,0.00,,---,0.00,37.00,VWS V14.01,2013-01-01 13:00:00,
2013-01-01 08:01:00,39.1,29.8,29.81,WNW,292,18.0,26.0,69,0.00,,---,0.00,37.00,VWS V14.01,2013-01-01 13:01:00,
2013-01-01 08:05:00,39.1,29.4,29.81,West,264,14.0,22.0,68,0.00,,---,0.00,40.00,VWS V14.01,2013-01-01 13:05:00,
2013-01-01 08:06:00,39.1,29.5,29.81,West,264,14.0,22.0,68,0.00,,---,0.00,40.00,VWS V14.01,2013-01-01 13:06:00,
2013-01-01 08:10:00,39.1,29.4,29.81,WNW,291,6.0,20.0,68,0.00,,---,0.00,37.00,VWS V14.01,2013-01-01 13:10:00,
2013-01-01 08:11:00,39.1,29.5,29.81,WNW,291,6.0,20.0,68,0.00,,---,0.00,37.00,VWS V14.01,2013-01-01 13:11:00,
2013-01-01 08:15:00,39.0,29.7,29.81,WNW,291,7.0,25.0,69,0.00,,---,0.00,42.00,VWS V14.01,2013-01-01 13:15:00,
2013-01-01 08:16:00,39.0,29.7,29.81,WNW,291,7.0,25.0,69,0.00,,---,0.00,42.00,VWS V14.01,2013-01-01 13:16:00,
2013-01-01 08:20:00,39.0,29.7,29.81,WNW,286,8.0,19.0,69,0.00,,---,0.00,54.00,VWS V14.01,2013-01-01 13:20:00,
2013-01-01 08:21:00,39.0,29.7,29.81,WNW,286,8.0,19.0,69,0.00,,---,0.00,54.00,VWS V14.01,2013-01-01 13:21:00,
2013-01-01 08:25:00,39.0,29.4,29.81,West,281,5.0,19.0,68,0.00,,---,0.00,42.00,VWS V14.01,2013-01-01 13:25:00,
2013-01-01 08:26:00,39.0,29.4,29.81,WNW,294,10.0,19.0,68,0.00,,---,0.00,42.00,VWS V14.01,2013-01-01 13:26:00,
2013-01-01 08:30:00,39.1,30.2,29.81,West,281,15.0,22.0,70,0.00,,---,0.00,63.00,VWS V14.01,2013-01-01 13:30:00,
2013-01-01 08:31:00,39.1,30.2,29.81,West,281,15.0,22.0,70,0.00,,---,0.00,63.00,VWS V14.01,2013-01-01 13:31:00,
2013-01-01 08:35:00,39.0,29.7,29.80,WNW,294,11.0,23.0,69,0.00,,---,0.00,72.00,VWS V14.01,2013-01-01 13:35:00,
2013-01-01 08:36:00,39.0,29.7,29.80,WNW,300,11.0,23.0,69,0.00,,---,0.00,72.00,VWS V14.01,2013-01-01 13:36:00,
2013-01-01 08:40:00,38.9,29.6,29.80,West,271,16.0,20.0,69,0.00,,---,0.00,79.00,VWS V14.01,2013-01-01 13:40:00,
2013-01-01 08:41:00,38.9,29.6,29.80,West,271,16.0,20.0,69,0.00,,---,0.00,79.00,VWS V14.01,2013-01-01 13:41:00,
2013-01-01 08:45:00,39.0,30.1,29.80,West,268,5.0,23.0,70,0.00,,---,0.00,83.00,VWS V14.01,2013-01-01 13:45:00,
2013-01-01 08:46:00,39.0,30.1,29.80,WSW,252,12.0,23.0,70,0.00,,---,0.00,83.00,VWS V14.01,2013-01-01 13:46:00,
2013-01-01 08:50:00,39.0,30.1,29.80,SW,232,11.0,18.0,70,0.00,,---,0.00,79.00,VWS V14.01,2013-01-01 13:50:00,
2013-01-01 08:51:00,39.0,30.1,29.80,West,279,10.0,18.0,70,0.00,,---,0.00,79.00,VWS V14.01,2013-01-01 13:51:00,
2013-01-01 08:55:00,39.0,29.7,29.80,West,277,5.0,21.0,69,0.00,,---,0.00,84.00,VWS V14.01,2013-01-01 13:55:00,
2013-01-01 08:56:00,38.9,29.6,29.80,NNW,327,8.0,21.0,69,0.00,,---,0.00,84.00,VWS V14.01,2013-01-01 13:56:00,
2013-01-01 09:00:00,39.0,29.4,29.80,WNW,293,25.0,25.0,68,0.00,,---,0.00,81.00,VWS V14.01,2013-01-01 14:00:00,
2013-01-01 09:01:00,39.0,29.4,29.80,WNW,290,23.0,23.0,68,0.00,,---,0.00,81.00,VWS V14.01,2013-01-01 14:01:00,
2013-01-01 09:05:00,39.1,29.8,29.80,WSW,248,19.0,25.0,69,0.00,,---,0.00,90.00,VWS V14.01,2013-01-01 14:05:00,
2013-01-01 09:06:00,39.1,29.8,29.80,WNW,300,15.0,25.0,69,0.00,,---,0.00,90.00,VWS V14.01,2013-01-01 14:06:00,
2013-01-01 09:10:00,39.1,28.7,29.80,WNW,290,11.0,31.0,66,0.00,,---,0.00,104.00,VWS V14.01,2013-01-01 14:10:00,
2013-01-01 09:11:00,39.1,28.7,29.80,West,271,19.0,31.0,66,0.00,,---,0.00,104.00,VWS V14.01,2013-01-01 14:11:00,
2013-01-01 09:15:00,39.1,28.7,29.81,WNW,283,17.0,26.0,66,0.00,,---,0.00,105.00,VWS V14.01,2013-01-01 14:15:00,
2013-01-01 09:16:00,39.1,28.7,29.81,West,280,13.0,26.0,66,0.00,,---,0.00,105.00,VWS V14.01,2013-01-01 14:16:00,
2013-01-01 09:20:00,39.0,28.6,29.81,WNW,297,13.0,26.0,66,0.00,,---,0.00,116.00,VWS V14.01,2013-01-01 14:20:00,
2013-01-01 09:21:00,39.0,28.6,29.81,West,271,20.0,26.0,66,0.00,,---,0.00,116.00,VWS V14.01,2013-01-01 14:21:00,
2013-01-01 09:25:00,39.0,29.0,29.81,WNW,284,16.0,21.0,67,0.00,,---,0.00,118.00,VWS V14.01,2013-01-01 14:25:00,
2013-01-01 09:26:00,39.1,29.1,29.81,WNW,291,6.0,21.0,67,0.00,,---,0.00,118.00,VWS V14.01,2013-01-01 14:26:00,
2013-01-01 09:30:00,39.1,29.1,29.81,WNW,295,17.0,24.0,67,0.00,,---,0.00,95.00,VWS V14.01,2013-01-01 14:30:00,
2013-01-01 09:31:00,39.1,29.1,29.81,WNW,303,19.0,24.0,67,0.00,,---,0.00,95.00,VWS V14.01,2013-01-01 14:31:00,
2013-01-01 09:35:00,39.0,29.4,29.82,WNW,298,9.0,22.0,68,0.00,,---,0.00,125.00,VWS V14.01,2013-01-01 14:35:00,
2013-01-01 09:36:00,39.0,29.0,29.82,WNW,303,13.0,22.0,67,0.00,,---,0.00,125.00,VWS V14.01,2013-01-01 14:36:00,
2013-01-01 09:40:00,39.1,29.1,29.82,WNW,294,11.0,20.0,67,0.00,,---,0.00,132.00,VWS V14.01,2013-01-01 14:40:00,
2013-01-01 09:41:00,39.0,29.0,29.82,West,280,19.0,20.0,67,0.00,,---,0.00,132.00,VWS V14.01,2013-01-01 14:41:00,
2013-01-01 09:45:00,39.1,29.4,29.82,WNW,293,22.0,23.0,68,0.00,,---,0.00,132.00,VWS V14.01,2013-01-01 14:45:00,
2013-01-01 09:46:00,39.1,29.5,29.82,WSW,247,22.0,23.0,68,0.00,,---,0.00,132.00,VWS V14.01,2013-01-01 14:46:00,
2013-01-01 09:50:00,39.0,28.6,29.82,WNW,301,10.0,22.0,66,0.00,,---,0.00,148.00,VWS V14.01,2013-01-01 14:50:00,
2013-01-01 09:51:00,39.0,28.6,29.82,WNW,288,7.0,22.0,66,0.00,,---,0.00,148.00,VWS V14.01,2013-01-01 14:51:00,
2013-01-01 09:55:00,39.0,28.6,29.82,WNW,282,11.0,18.0,66,0.00,,---,0.00,142.00,VWS V14.01,2013-01-01 14:55:00,
2013-01-01 09:56:00,39.0,28.6,29.82,WNW,286,15.0,18.0,66,0.00,,---,0.00,141.00,VWS V14.01,2013-01-01 14:56:00,
2013-01-01 10:00:00,38.9,27.8,29.83,WNW,288,15.0,23.0,64,0.00,,---,0.00,153.00,VWS V14.01,2013-01-01 15:00:00,
2013-01-01 10:01:00,39.0,28.2,29.83,WNW,284,23.0,23.0,65,0.00,,---,0.00,153.00,VWS V14.01,2013-01-01 15:01:00,
2013-01-01 10:05:00,39.0,28.6,29.83,WNW,292,8.0,19.0,66,0.00,,---,0.00,155.00,VWS V14.01,2013-01-01 15:05:00,
2013-01-01 10:06:00,39.0,28.2,29.83,West,281,14.0,19.0,65,0.00,,---,0.00,155.00,VWS V14.01,2013-01-01 15:06:00,
2013-01-01 10:10:00,39.0,28.6,29.83,West,273,13.0,21.0,66,0.00,,---,0.00,120.00,VWS V14.01,2013-01-01 15:10:00,
2013-01-01 10:11:00,39.0,28.6,29.83,West,265,11.0,21.0,66,0.00,,---,0.00,120.00,VWS V14.01,2013-01-01 15:11:00,
2013-01-01 10:15:00,39.0,28.2,29.83,WNW,299,9.0,21.0,65,0.00,,---,0.00,123.00,VWS V14.01,2013-01-01 15:15:00,
2013-01-01 10:16:00,39.0,28.2,29.83,WNW,283,11.0,21.0,65,0.00,,---,0.00,123.00,VWS V14.01,2013-01-01 15:16:00,
2013-01-01 10:20:00,38.9,27.8,29.82,WNW,291,12.0,21.0,64,0.00,,---,0.00,156.00,VWS V14.01,2013-01-01 15:20:00,
2013-01-01 10:21:00,38.9,27.8,29.82,WNW,285,18.0,21.0,64,0.00,,---,0.00,151.00,VWS V14.01,2013-01-01 15:21:00,
2013-01-01 10:25:00,38.9,27.8,29.82,West,281,11.0,19.0,64,0.00,,---,0.00,172.00,VWS V14.01,2013-01-01 15:25:00,
2013-01-01 10:26:00,38.9,27.8,29.82,WNW,290,7.0,19.0,64,0.00,,---,0.00,171.00,VWS V14.01,2013-01-01 15:26:00,
2013-01-01 10:30:00,39.0,28.2,29.82,NW,326,16.0,22.0,65,0.00,,---,0.00,183.00,VWS V14.01,2013-01-01 15:30:00,
2013-01-01 10:31:00,39.0,28.2,29.82,West,280,9.0,22.0,65,0.00,,---,0.00,181.00,VWS V14.01,2013-01-01 15:31:00,
2013-01-01 10:35:00,39.0,27.9,29.81,West,259,6.0,24.0,64,0.00,,---,0.00,172.00,VWS V14.01,2013-01-01 15:35:00,
2013-01-01 10:36:00,39.0,27.9,29.81,WNW,297,12.0,24.0,64,0.00,,---,0.00,172.00,VWS V14.01,2013-01-01 15:36:00,
2013-01-01 10:40:00,39.0,27.9,29.82,West,281,18.0,21.0,64,0.00,,---,0.00,186.00,VWS V14.01,2013-01-01 15:40:00,
2013-01-01 10:41:00,39.0,27.9,29.82,WNW,284,10.0,21.0,64,0.00,,---,0.00,186.00,VWS V14.01,2013-01-01 15:41:00,
2013-01-01 10:45:00,39.0,28.2,29.81,West,273,10.0,20.0,65,0.00,,---,0.00,181.00,VWS V14.01,2013-01-01 15:45:00,
2013-01-01 10:46:00,39.1,28.3,29.81,WNW,300,10.0,20.0,65,0.00,,---,0.00,181.00,VWS V14.01,2013-01-01 15:46:00,
2013-01-01 10:50:00,39.2,28.8,29.81,WNW,290,7.0,13.0,66,0.00,,---,0.00,179.00,VWS V14.01,2013-01-01 15:50:00,
2013-01-01 10:51:00,39.1,28.7,29.81,NW,313,4.0,13.0,66,0.00,,---,0.00,181.00,VWS V14.01,2013-01-01 15:51:00,
2013-01-01 10:55:00,39.1,28.0,29.81,WNW,296,10.0,17.0,64,0.00,,---,0.00,197.00,VWS V14.01,2013-01-01 15:55:00,
2013-01-01 10:56:00,39.2,28.1,29.81,WNW,284,13.0,17.0,64,0.00,,---,0.00,197.00,VWS V14.01,2013-01-01 15:56:00,
2013-01-01 11:00:00,39.1,28.0,29.81,West,279,10.0,19.0,64,0.00,,---,0.00,176.00,VWS V14.01,2013-01-01 16:00:00,
2013-01-01 11:01:00,39.1,28.0,29.81,WNW,283,7.0,19.0,64,0.00,,---,0.00,172.00,VWS V14.01,2013-01-01 16:01:00,
2013-01-01 11:05:00,39.2,28.8,29.81,West,276,9.0,17.0,66,0.00,,---,0.00,188.00,VWS V14.01,2013-01-01 16:05:00,
2013-01-01 11:06:00,39.2,28.8,29.81,West,271,17.0,17.0,66,0.00,,---,0.00,185.00,VWS V14.01,2013-01-01 16:06:00,
2013-01-01 11:10:00,39.3,28.9,29.81,West,279,13.0,20.0,66,0.00,,---,0.00,197.00,VWS V14.01,2013-01-01 16:10:00,
2013-01-01 11:11:00,39.3,28.9,29.81,West,269,20.0,20.0,66,0.00,,---,0.00,197.00,VWS V14.01,2013-01-01 16:11:00,
2013-01-01 11:15:00,39.3,28.5,29.80,NW,306,6.0,17.0,65,0.00,,---,0.00,179.00,VWS V14.01,2013-01-01 16:15:00,
2013-01-01 11:16:00,39.3,28.5,29.80,NW,308,6.0,17.0,65,0.00,,---,0.00,179.00,VWS V14.01,2013-01-01 16:16:00,
2013-01-01 11:20:00,39.3,28.2,29.80,NW,305,11.0,22.0,64,0.00,,---,0.00,223.00,VWS V14.01,2013-01-01 16:20:00,
2013-01-01 11:21:00,39.3,28.2,29.80,West,277,17.0,22.0,64,0.00,,---,0.00,223.00,VWS V14.01,2013-01-01 16:21:00,
2013-01-01 11:25:00,39.3,27.8,29.80,WNW,290,10.0,22.0,63,0.00,,---,0.00,197.00,VWS V14.01,2013-01-01 16:25:00,
2013-01-01 11:26:00,39.4,27.9,29.80,West,270,15.0,18.0,63,0.00,,---,0.00,199.00,VWS V14.01,2013-01-01 16:26:00,
2013-01-01 11:30:00,39.4,28.2,29.80,West,266,10.0,18.0,64,0.00,,---,0.00,195.00,VWS V14.01,2013-01-01 16:30:00,
2013-01-01 11:31:00,39.4,28.2,29.80,WNW,284,12.0,18.0,64,0.00,,---,0.00,193.00,VWS V14.01,2013-01-01 16:31:00,
2013-01-01 11:35:00,39.4,27.9,29.80,West,259,12.0,19.0,63,0.00,,---,0.00,172.00,VWS V14.01,2013-01-01 16:35:00,
2013-01-01 11:36:00,39.4,27.9,29.80,WNW,298,14.0,19.0,63,0.00,,---,0.00,176.00,VWS V14.01,2013-01-01 16:36:00,
2013-01-01 11:40:00,39.3,28.2,29.79,West,275,14.0,19.0,64,0.00,,---,0.00,169.00,VWS V14.01,2013-01-01 16:40:00,
2013-01-01 11:41:00,39.3,27.8,29.79,West,280,12.0,19.0,63,0.00,,---,0.00,165.00,VWS V14.01,2013-01-01 16:41:00,
2013-01-01 11:45:00,39.3,28.2,29.79,NW,311,10.0,17.0,64,0.00,,---,0.00,185.00,VWS V14.01,2013-01-01 16:45:00,
2013-01-01 11:46:00,39.3,28.2,29.79,WNW,298,11.0,17.0,64,0.00,,---,0.00,185.00,VWS V14.01,2013-01-01 16:46:00,
2013-01-01 11:50:00,39.3,26.6,29.79,WNW,282,11.0,22.0,60,0.00,,---,0.00,172.00,VWS V14.01,2013-01-01 16:50:00,
2013-01-01 11:51:00,39.3,27.0,29.79,WSW,247,14.0,22.0,61,0.00,,---,0.00,172.00,VWS V14.01,2013-01-01 16:51:00,
2013-01-01 11:55:00,39.2,26.9,29.78,WNW,283,17.0,21.0,61,0.00,,---,0.00,174.00,VWS V14.01,2013-01-01 16:55:00,
2013-01-01 11:56:00,39.2,26.9,29.78,WNW,296,7.0,21.0,61,0.00,,---,0.00,174.00,VWS V14.01,2013-01-01 16:56:00,
2013-01-01 12:00:00,39.1,26.8,29.78,WNW,298,10.0,20.0,61,0.00,,---,0.00,190.00,VWS V14.01,2013-01-01 17:00:00,
2013-01-01 12:01:00,39.1,26.8,29.78,WSW,246,9.0,20.0,61,0.00,,---,0.00,190.00,VWS V14.01,2013-01-01 17:01:00,
2013-01-01 12:05:00,39.2,27.3,29.77,West,269,9.0,21.0,62,0.00,,---,0.00,199.00,VWS V14.01,2013-01-01 17:05:00,
2013-01-01 12:06:00,39.2,26.9,29.77,WNW,283,16.0,21.0,61,0.00,,---,0.00,195.00,VWS V14.01,2013-01-01 17:06:00,
2013-01-01 12:10:00,39.2,26.1,29.77,West,276,13.0,24.0,59,0.00,,---,0.00,200.00,VWS V14.01,2013-01-01 17:10:00,
2013-01-01 12:11:00,39.2,26.5,29.77,West,267,9.0,24.0,60,0.00,,---,0.00,197.00,VWS V14.01,2013-01-01 17:11:00,
2013-01-01 12:15:00,39.2,26.1,29.77,WNW,291,19.0,21.0,59,0.00,,---,0.00,197.00,VWS V14.01,2013-01-01 17:15:00,
2013-01-01 12:16:00,39.2,26.1,29.77,WNW,285,10.0,21.0,59,0.00,,---,0.00,199.00,VWS V14.01,2013-01-01 17:16:00,
2013-01-01 12:20:00,39.2,26.9,29.78,West,277,9.0,21.0,61,0.00,,---,0.00,188.00,VWS V14.01,2013-01-01 17:20:00,
2013-01-01 12:21:00,39.2,26.5,29.78,West,269,16.0,21.0,60,0.00,,---,0.00,188.00,VWS V14.01,2013-01-01 17:21:00,
2013-01-01 12:25:00,39.2,26.5,29.77,WSW,257,18.0,24.0,60,0.00,,---,0.00,188.00,VWS V14.01,2013-01-01 17:25:00,
2013-01-01 12:26:00,39.2,26.1,29.77,WNW,295,8.0,24.0,59,0.00,,---,0.00,190.00,VWS V14.01,2013-01-01 17:26:00,
2013-01-01 12:30:00,39.2,26.5,29.77,WNW,297,11.0,25.0,60,0.00,,---,0.00,167.00,VWS V14.01,2013-01-01 17:30:00,
2013-01-01 12:31:00,39.2,26.5,29.77,West,266,13.0,25.0,60,0.00,,---,0.00,171.00,VWS V14.01,2013-01-01 17:31:00,
2013-01-01 12:35:00,39.0,25.9,29.77,West,263,12.0,25.0,59,0.00,,---,0.00,163.00,VWS V14.01,2013-01-01 17:35:00,
2013-01-01 12:36:00,39.1,26.0,29.77,WNW,292,15.0,25.0,59,0.00,,---,0.00,165.00,VWS V14.01,2013-01-01 17:36:00,
2013-01-01 12:40:00,38.9,26.2,29.77,WNW,288,14.0,23.0,60,0.00,,---,0.00,158.00,VWS V14.01,2013-01-01 17:40:00,
2013-01-01 12:41:00,39.0,26.3,29.77,WSW,258,20.0,23.0,60,0.00,,---,0.00,158.00,VWS V14.01,2013-01-01 17:41:00,
2013-01-01 12:45:00,38.9,25.8,29.77,West,271,23.0,26.0,59,0.00,,---,0.00,185.00,VWS V14.01,2013-01-01 17:45:00,
2013-01-01 12:46:00,38.9,25.8,29.77,West,259,17.0,26.0,59,0.00,,---,0.00,178.00,VWS V14.01,2013-01-01 17:46:00,
2013-01-01 12:50:00,39.0,26.7,29.77,West,268,20.0,23.0,61,0.00,,---,0.00,171.00,VWS V14.01,2013-01-01 17:50:00,
2013-01-01 12:51:00,39.0,26.3,29.77,West,277,11.0,23.0,60,0.00,,---,0.00,174.00,VWS V14.01,2013-01-01 17:51:00,
2013-01-01 12:55:00,39.0,26.7,29.76,West,277,13.0,21.0,61,0.00,,---,0.00,156.00,VWS V14.01,2013-01-01 17:55:00,
2013-01-01 12:56:00,39.0,26.7,29.76,West,277,10.0,21.0,61,0.00,,---,0.00,162.00,VWS V14.01,2013-01-01 17:56:00,
2013-01-01 13:00:00,38.9,26.2,29.77,NW,318,14.0,19.0,60,0.00,,---,0.00,155.00,VWS V14.01,2013-01-01 18:00:00,
2013-01-01 13:01:00,38.9,26.6,29.77,WNW,287,9.0,19.0,61,0.00,,---,0.00,149.00,VWS V14.01,2013-01-01 18:01:00,
2013-01-01 13:05:00,38.9,26.6,29.77,WNW,300,13.0,25.0,61,0.00,,---,0.00,156.00,VWS V14.01,2013-01-01 18:05:00,
2013-01-01 13:06:00,38.8,26.1,29.77,WNW,297,9.0,25.0,60,0.00,,---,0.00,155.00,VWS V14.01,2013-01-01 18:06:00,
2013-01-01 13:10:00,38.9,25.8,29.76,NW,304,10.0,25.0,59,0.00,,---,0.00,153.00,VWS V14.01,2013-01-01 18:10:00,
2013-01-01 13:15:00,38.9,26.6,29.77,West,277,23.0,25.0,61,0.00,,---,0.00,153.00,VWS V14.01,2013-01-01 18:15:00,
2013-01-01 13:20:00,38.8,26.5,29.76,West,263,13.0,21.0,61,0.00,,---,0.00,155.00,VWS V14.01,2013-01-01 18:20:00,
2013-01-01 13:25:00,38.8,26.9,29.76,NW,322,8.0,16.0,62,0.00,,---,0.00,153.00,VWS V14.01,2013-01-01 18:25:00,
2013-01-01 13:30:00,38.7,25.6,29.77,West,273,13.0,18.0,59,0.00,,---,0.00,139.00,VWS V14.01,2013-01-01 18:30:00,
2013-01-01 13:35:00,38.7,26.4,29.77,WNW,284,14.0,18.0,61,0.00,,---,0.00,127.00,VWS V14.01,2013-01-01 18:35:00,
2013-01-01 13:40:00,38.6,25.5,29.77,WNW,295,6.0,18.0,59,0.00,,---,0.00,142.00,VWS V14.01,2013-01-01 18:40:00,
2013-01-01 13:45:00,38.6,25.9,29.76,West,267,12.0,18.0,60,0.00,,---,0.00,135.00,VWS V14.01,2013-01-01 18:45:00,
2013-01-01 13:50:00,38.6,25.9,29.76,WNW,300,15.0,21.0,60,0.00,,---,0.00,134.00,VWS V14.01,2013-01-01 18:50:00,
2013-01-01 13:55:00,38.5,24.6,29.77,WNW,294,10.0,24.0,57,0.00,,---,0.00,130.00,VWS V14.01,2013-01-01 18:55:00,
2013-01-01 14:00:00,38.6,26.3,29.77,West,275,8.0,15.0,61,0.00,,---,0.00,125.00,VWS V14.01,2013-01-01 19:00:00,
2013-01-01 14:05:00,38.5,25.4,29.77,WNW,290,11.0,21.0,59,0.00,,---,0.00,130.00,VWS V14.01,2013-01-01 19:05:00,
2013-01-01 14:10:00,38.5,25.8,29.77,WNW,288,8.0,19.0,60,0.00,,---,0.00,127.00,VWS V14.01,2013-01-01 19:10:00,
2013-01-01 14:15:00,38.4,25.3,29.76,West,277,12.0,17.0,59,0.00,,---,0.00,128.00,VWS V14.01,2013-01-01 19:15:00,
2013-01-01 14:20:00,38.4,26.1,29.76,WNW,296,12.0,19.0,61,0.00,,---,0.00,132.00,VWS V14.01,2013-01-01 19:20:00,
2013-01-01 14:25:00,38.4,26.9,29.76,West,276,6.0,20.0,63,0.00,,---,0.00,146.00,VWS V14.01,2013-01-01 19:25:00,
2013-01-01 14:30:00,38.4,24.5,29.76,NW,306,11.0,18.0,57,0.00,,---,0.00,155.00,VWS V14.01,2013-01-01 19:30:00,
2013-01-01 14:35:00,38.2,25.5,29.76,NW,313,16.0,16.0,60,0.00,,---,0.00,148.00,VWS V14.01,2013-01-01 19:35:00,
2013-01-01 14:40:00,37.8,25.2,29.76,NW,320,8.0,20.0,60,0.00,,---,0.00,132.00,VWS V14.01,2013-01-01 19:40:00,
2013-01-01 14:45:00,37.6,25.8,29.76,WNW,301,13.0,13.0,62,0.00,,---,0.00,125.00,VWS V14.01,2013-01-01 19:45:00,
2013-01-01 14:50:00,37.3,25.1,29.77,NW,311,12.0,16.0,61,0.00,,---,0.00,120.00,VWS V14.01,2013-01-01 19:50:00,
2013-01-01 14:55:00,37.1,24.9,29.77,NW,309,15.0,15.0,61,0.00,,---,0.00,98.00,VWS V14.01,2013-01-01 19:55:00,
2013-01-01 15:00:00,37.0,24.8,29.78,WNW,294,8.0,17.0,61,0.00,,---,0.00,79.00,VWS V14.01,2013-01-01 20:00:00,
2013-01-01 15:05:00,36.9,24.3,29.78,West,276,8.0,15.0,60,0.00,,---,0.00,81.00,VWS V14.01,2013-01-01 20:05:00,
2013-01-01 15:10:00,36.8,24.2,29.77,WNW,298,8.0,19.0,60,0.00,,---,0.00,98.00,VWS V14.01,2013-01-01 20:10:00,
2013-01-01 15:15:00,36.6,23.6,29.77,WNW,302,15.0,17.0,59,0.00,,---,0.00,98.00,VWS V14.01,2013-01-01 20:15:00,
2013-01-01 15:20:00,36.6,24.0,29.78,WNW,285,13.0,14.0,60,0.00,,---,0.00,95.00,VWS V14.01,2013-01-01 20:20:00,
2013-01-01 15:25:00,36.5,23.1,29.77,NW,307,9.0,18.0,58,0.00,,---,0.00,79.00,VWS V14.01,2013-01-01 20:25:00,
2013-01-01 15:30:00,36.4,23.0,29.77,NW,313,18.0,18.0,58,0.00,,---,0.00,74.00,VWS V14.01,2013-01-01 20:30:00,
2013-01-01 15:35:00,36.4,23.5,29.77,WNW,288,15.0,15.0,59,0.00,,---,0.00,84.00,VWS V14.01,2013-01-01 20:35:00,
2013-01-01 15:40:00,36.4,23.0,29.77,WNW,292,12.0,17.0,58,0.00,,---,0.00,79.00,VWS V14.01,2013-01-01 20:40:00,
2013-01-01 15:45:00,36.3,23.0,29.78,NNW,327,11.0,17.0,58,0.00,,---,0.00,56.00,VWS V14.01,2013-01-01 20:45:00,
2013-01-01 15:50:00,36.1,22.8,29.78,NW,323,10.0,20.0,58,0.00,,---,0.00,42.00,VWS V14.01,2013-01-01 20:50:00,
2013-01-01 15:55:00,35.9,22.2,29.78,WNW,302,18.0,24.0,57,0.00,,---,0.00,44.00,VWS V14.01,2013-01-01 20:55:00,
2013-01-01 16:00:00,35.8,22.1,29.79,WNW,298,17.0,20.0,57,0.00,,---,0.00,35.00,VWS V14.01,2013-01-01 21:00:00,
2013-01-01 16:05:00,35.7,22.0,29.79,West,281,14.0,17.0,57,0.00,,---,0.00,30.00,VWS V14.01,2013-01-01 21:05:00,
2013-01-01 16:10:00,35.6,21.9,29.80,NW,306,12.0,21.0,57,0.00,,---,0.00,19.00,VWS V14.01,2013-01-01 21:10:00,
2013-01-01 16:15:00,35.5,22.2,29.80,NW,308,13.0,16.0,58,0.00,,---,0.00,12.00,VWS V14.01,2013-01-01 21:15:00,
2013-01-01 16:20:00,35.4,21.7,29.80,WNW,292,7.0,24.0,57,0.00,,---,0.00,7.00,VWS V14.01,2013-01-01 21:20:00,
2013-01-01 16:25:00,35.4,22.5,29.80,NW,306,7.0,17.0,59,0.00,,---,0.00,5.00,VWS V14.01,2013-01-01 21:25:00,
2013-01-01 16:30:00,35.2,22.3,29.80,WNW,300,10.0,22.0,59,0.00,,---,0.00,0.00,VWS V14.01,2013-01-01 21:30:00,
2013-01-01 16:35:00,35.1,22.2,29.80,WNW,295,10.0,19.0,59,0.00,,---,0.00,0.00,VWS V14.01,2013-01-01 21:35:00,
2013-01-01 16:40:00,34.8,22.0,29.81,WNW,284,15.0,21.0,59,0.00,,---,0.00,0.00,VWS V14.01,2013-01-01 21:40:00,
2013-01-01 16:45:00,34.7,21.9,29.81,NW,318,13.0,19.0,59,0.00,,---,0.00,0.00,VWS V14.01,2013-01-01 21:45:00,
2013-01-01 16:50:00,34.6,21.8,29.82,NW,315,12.0,19.0,59,0.00,,---,0.00,0.00,VWS V14.01,2013-01-01 21:50:00,
2013-01-01 16:55:00,34.6,22.5,29.83,NW,315,12.0,20.0,61,0.00,,---,0.00,0.00,VWS V14.01,2013-01-01 21:55:00,
2013-01-01 17:00:00,34.2,22.5,29.83,NW,315,10.0,19.0,62,0.00,,---,0.00,0.00,VWS V14.01,2013-01-01 22:00:00,
2013-01-01 17:05:00,33.7,22.8,29.83,NW,315,9.0,16.0,64,0.00,,---,0.00,0.00,VWS V14.01,2013-01-01 22:05:00,
2013-01-01 17:14:00,33.7,22.8,29.83,NW,315,9.0,16.0,64,0.00,,---,0.00,0.00,VWS V14.01,2013-01-01 22:14:00,
2013-01-01 17:15:00,33.2,22.4,29.83,NW,325,9.0,15.0,64,0.00,,---,0.00,0.00,VWS V14.01,2013-01-01 22:15:00,
2013-01-01 17:19:00,33.2,22.4,29.83,NNW,334,11.0,12.0,64,0.00,,---,0.00,0.00,VWS V14.01,2013-01-01 22:19:00,
2013-01-01 17:20:00,33.1,22.3,29.83,NNW,327,16.0,19.0,64,0.00,,---,0.00,0.00,VWS V14.01,2013-01-01 22:20:00,
2013-01-01 17:23:00,32.9,21.7,29.82,NW,321,12.0,18.0,63,0.00,,---,0.00,0.00,VWS V14.01,2013-01-01 22:23:00,
2013-01-01 17:25:00,32.8,21.6,29.82,NW,304,11.0,18.0,63,0.00,,---,0.00,0.00,VWS V14.01,2013-01-01 22:25:00,
2013-01-01 17:28:00,32.7,21.1,29.83,WNW,300,14.0,17.0,62,0.00,,---,0.00,0.00,VWS V14.01,2013-01-01 22:28:00,
2013-01-01 17:30:00,32.6,21.4,29.83,NW,304,12.0,17.0,63,0.00,,---,0.00,0.00,VWS V14.01,2013-01-01 22:30:00,
2013-01-01 17:33:00,32.5,20.9,29.84,WNW,302,16.0,17.0,62,0.00,,---,0.00,0.00,VWS V14.01,2013-01-01 22:33:00,
2013-01-01 17:35:00,32.4,21.2,29.84,WNW,286,13.0,17.0,63,0.00,,---,0.00,0.00,VWS V14.01,2013-01-01 22:35:00,
2013-01-01 17:38:00,32.4,20.9,29.84,WNW,302,9.0,20.0,62,0.00,,---,0.00,0.00,VWS V14.01,2013-01-01 22:38:00,
2013-01-01 17:40:00,32.3,20.4,29.84,WNW,291,12.0,20.0,61,0.00,,---,0.00,0.00,VWS V14.01,2013-01-01 22:40:00,
2013-01-01 17:43:00,32.2,20.3,29.84,NW,324,11.0,20.0,61,0.00,,---,0.00,0.00,VWS V14.01,2013-01-01 22:43:00,
2013-01-01 17:45:00,32.1,20.2,29.84,WNW,292,11.0,20.0,61,0.00,,---,0.00,0.00,VWS V14.01,2013-01-01 22:45:00,
2013-01-01 17:48:00,32.1,20.6,29.84,NW,307,9.0,14.0,62,0.00,,---,0.00,0.00,VWS V14.01,2013-01-01 22:48:00,
2013-01-01 17:50:00,32.0,20.5,29.84,NW,317,11.0,17.0,62,0.00,,---,0.00,0.00,VWS V14.01,2013-01-01 22:50:00,
2013-01-01 17:53:00,31.9,20.4,29.85,WNW,302,14.0,14.0,62,0.00,,---,0.00,0.00,VWS V14.01,2013-01-01 22:53:00,
2013-01-01 17:55:00,31.9,20.4,29.86,WNW,296,15.0,18.0,62,0.00,,---,0.00,0.00,VWS V14.01,2013-01-01 22:55:00,
2013-01-01 17:58:00,31.8,20.3,29.86,NW,309,15.0,19.0,62,0.00,,---,0.00,0.00,VWS V14.01,2013-01-01 22:58:00,
2013-01-01 18:00:00,31.8,20.3,29.86,NW,312,8.0,19.0,62,0.00,,---,0.00,0.00,VWS V14.01,2013-01-01 23:00:00,
2013-01-01 18:03:00,31.8,20.3,29.86,NW,312,12.0,16.0,62,0.00,,---,0.00,0.00,VWS V14.01,2013-01-01 23:03:00,
2013-01-01 18:05:00,31.8,20.3,29.86,WNW,294,11.0,17.0,62,0.00,,---,0.00,0.00,VWS V14.01,2013-01-01 23:05:00,
2013-01-01 18:08:00,31.8,20.3,29.86,WNW,301,14.0,14.0,62,0.00,,---,0.00,0.00,VWS V14.01,2013-01-01 23:08:00,
2013-01-01 18:10:00,31.7,20.2,29.85,WNW,298,14.0,20.0,62,0.00,,---,0.00,0.00,VWS V14.01,2013-01-01 23:10:00,
2013-01-01 18:13:00,31.7,20.2,29.86,NW,315,17.0,21.0,62,0.00,,---,0.00,0.00,VWS V14.01,2013-01-01 23:13:00,
2013-01-01 18:15:00,31.7,20.2,29.85,NW,304,9.0,21.0,62,0.00,,---,0.00,0.00,VWS V14.01,2013-01-01 23:15:00,
2013-01-01 18:18:00,31.6,20.1,29.85,WNW,300,9.0,14.0,62,0.00,,---,0.00,0.00,VWS V14.01,2013-01-01 23:18:00,
2013-01-01 18:20:00,31.5,20.4,29.85,WNW,299,13.0,17.0,63,0.00,,---,0.00,0.00,VWS V14.01,2013-01-01 23:20:00,
2013-01-01 18:23:00,31.5,20.0,29.85,West,281,16.0,23.0,62,0.00,,---,0.00,0.00,VWS V14.01,2013-01-01 23:23:00,
2013-01-01 18:25:00,31.5,19.6,29.86,WNW,283,14.0,23.0,61,0.00,,---,0.00,0.00,VWS V14.01,2013-01-01 23:25:00,
2013-01-01 18:28:00,31.5,20.0,29.86,NW,314,12.0,24.0,62,0.00,,---,0.00,0.00,VWS V14.01,2013-01-01 23:28:00,
2013-01-01 18:30:00,31.4,19.5,29.85,WNW,300,9.0,24.0,61,0.00,,---,0.00,0.00,VWS V14.01,2013-01-01 23:30:00,
2013-01-01 18:33:00,31.4,19.5,29.85,NW,304,9.0,17.0,61,0.00,,---,0.00,0.00,VWS V14.01,2013-01-01 23:33:00,
2013-01-01 18:35:00,31.3,19.0,29.85,WNW,294,12.0,23.0,60,0.00,,---,0.00,0.00,VWS V14.01,2013-01-01 23:35:00,
2013-01-01 18:38:00,31.2,19.3,29.85,WNW,302,15.0,16.0,61,0.00,,---,0.00,0.00,VWS V14.01,2013-01-01 23:38:00,
2013-01-01 18:40:00,31.2,19.3,29.85,NW,318,16.0,25.0,61,0.00,,---,0.00,0.00,VWS V14.01,2013-01-01 23:40:00,
2013-01-01 18:43:00,31.2,19.0,29.86,WNW,298,13.0,19.0,60,0.00,,---,0.00,0.00,VWS V14.01,2013-01-01 23:43:00,
2013-01-01 18:45:00,31.2,19.3,29.86,NW,315,14.0,24.0,61,0.00,,---,0.00,0.00,VWS V14.01,2013-01-01 23:45:00,
2013-01-01 18:50:00,31.1,18.9,29.86,NW,315,15.0,22.0,60,0.00,,---,0.00,0.00,VWS V14.01,2013-01-01 23:50:00,
2013-01-01 18:55:00,31.0,18.8,29.86,NW,315,14.0,20.0,60,0.00,,---,0.00,0.00,VWS V14.01,2013-01-01 23:55:00,
2013-01-01 19:00:00,31.0,19.1,29.87,NW,315,14.0,20.0,61,0.00,,---,0.00,0.00,VWS V14.01,2013-01-02 00:00:00,
2013-01-01 19:05:00,30.9,19.4,29.87,WNW,292,12.0,20.0,62,0.00,,---,0.00,0.00,VWS V14.01,2013-01-02 00:05:00,
2013-01-01 19:10:00,30.9,19.0,29.87,NW,315,13.0,23.0,61,0.00,,---,0.00,0.00,VWS V14.01,2013-01-02 00:10:00,
2013-01-01 19:15:00,30.8,18.6,29.88,WNW,292,14.0,23.0,60,0.00,,---,0.00,0.00,VWS V14.01,2013-01-02 00:15:00,
2013-01-01 19:20:00,30.8,18.6,29.88,WNW,292,12.0,22.0,60,0.00,,---,0.00,0.00,VWS V14.01,2013-01-02 00:20:00,
2013-01-01 19:25:00,30.8,18.6,29.88,WNW,292,14.0,21.0,60,0.00,,---,0.00,0.00,VWS V14.01,2013-01-02 00:25:00,
2013-01-01 19:30:00,30.7,18.1,29.88,NW,315,14.0,24.0,59,0.00,,---,0.00,0.00,VWS V14.01,2013-01-02 00:30:00,
2013-01-01 19:35:00,30.6,17.6,29.89,WNW,292,13.0,22.0,58,0.00,,---,0.00,0.00,VWS V14.01,2013-01-02 00:35:00,
2013-01-01 19:40:00,30.5,17.5,29.88,WNW,292,12.0,18.0,58,0.00,,---,0.00,0.00,VWS V14.01,2013-01-02 00:40:00,
2013-01-01 19:45:00,30.5,17.9,29.89,NW,315,12.0,22.0,59,0.00,,---,0.00,0.00,VWS V14.01,2013-01-02 00:45:00,
2013-01-01 19:50:00,30.4,17.0,29.89,WNW,292,15.0,23.0,57,0.00,,---,0.00,0.00,VWS V14.01,2013-01-02 00:50:00,
2013-01-01 20:00:00,30.4,17.0,29.89,WNW,292,15.0,23.0,57,0.00,,---,0.00,0.00,VWS V14.01,2013-01-02 01:00:00,
2013-01-01 20:05:00,30.2,17.6,29.88,WNW,302,15.0,19.0,59,0.00,,---,0.00,0.00,VWS V14.01,2013-01-02 01:05:00,
2013-01-01 20:10:00,30.2,17.2,29.88,WNW,294,11.0,18.0,58,0.00,,---,0.00,0.00,VWS V14.01,2013-01-02 01:10:00,
2013-01-01 20:15:00,30.0,17.0,29.88,NNW,336,10.0,13.0,58,0.00,,---,0.00,0.00,VWS V14.01,2013-01-02 01:15:00,
2013-01-01 20:20:00,29.9,16.9,29.88,NNW,336,10.0,20.0,58,0.00,,---,0.00,0.00,VWS V14.01,2013-01-02 01:20:00,
2013-01-01 20:25:00,29.8,16.8,29.88,WNW,289,8.0,19.0,58,0.00,,---,0.00,0.00,VWS V14.01,2013-01-02 01:25:00,
2013-01-01 20:30:00,29.7,16.8,29.88,NW,318,16.0,22.0,58,0.00,,---,0.00,0.00,VWS V14.01,2013-01-02 01:30:00,
2013-01-01 20:35:00,29.7,16.4,29.88,NW,312,13.0,24.0,57,0.00,,---,0.00,0.00,VWS V14.01,2013-01-02 01:35:00,
2013-01-01 20:40:00,29.7,15.9,29.89,WNW,294,17.0,21.0,56,0.00,,---,0.00,0.00,VWS V14.01,2013-01-02 01:40:00,
2013-01-01 20:45:00,29.6,15.8,29.89,NW,310,11.0,18.0,56,0.00,,---,0.00,0.00,VWS V14.01,2013-01-02 01:45:00,
2013-01-01 20:50:00,29.6,16.6,29.90,WNW,299,12.0,16.0,58,0.00,,---,0.00,0.00,VWS V14.01,2013-01-02 01:50:00,
2013-01-01 20:55:00,29.5,16.2,29.90,WNW,299,18.0,18.0,57,0.00,,---,0.00,0.00,VWS V14.01,2013-01-02 01:55:00,
2013-01-01 20:59:00,29.4,15.7,29.91,NW,304,12.0,18.0,56,0.00,,---,0.00,0.00,VWS V14.01,2013-01-02 01:59:00,
2013-01-01 21:00:00,29.3,14.7,29.90,NW,312,13.0,22.0,54,0.00,,---,0.00,0.00,VWS V14.01,2013-01-02 02:00:00,
2013-01-01 21:04:00,29.2,14.2,29.90,WNW,298,10.0,21.0,53,0.00,,---,0.00,0.00,VWS V14.01,2013-01-02 02:04:00,
2013-01-01 21:05:00,29.2,14.2,29.90,NW,317,11.0,21.0,53,0.00,,---,0.00,0.00,VWS V14.01,2013-01-02 02:05:00,
2013-01-01 21:09:00,29.1,15.0,29.90,NW,314,11.0,18.0,55,0.00,,---,0.00,0.00,VWS V14.01,2013-01-02 02:09:00,
2013-01-01 21:10:00,29.0,14.9,29.91,NNW,329,10.0,19.0,55,0.00,,---,0.00,0.00,VWS V14.01,2013-01-02 02:10:00,
2013-01-01 21:14:00,28.9,14.4,29.91,NW,321,9.0,15.0,54,0.00,,---,0.00,0.00,VWS V14.01,2013-01-02 02:14:00,
2013-01-01 21:15:00,28.8,14.3,29.91,WNW,294,10.0,19.0,54,0.00,,---,0.00,0.00,VWS V14.01,2013-01-02 02:15:00,
2013-01-01 21:19:00,28.7,13.8,29.91,WNW,300,11.0,20.0,53,0.00,,---,0.00,0.00,VWS V14.01,2013-01-02 02:19:00,
2013-01-01 21:20:00,28.7,13.7,29.91,WNW,300,10.0,20.0,53,0.00,,---,0.00,0.00,VWS V14.01,2013-01-02 02:20:00,
2013-01-01 21:24:00,28.6,13.2,29.92,WSW,245,10.0,20.0,52,0.00,,---,0.00,0.00,VWS V14.01,2013-01-02 02:24:00,
2013-01-01 21:25:00,28.5,13.1,29.91,NW,306,19.0,20.0,52,0.00,,---,0.00,0.00,VWS V14.01,2013-01-02 02:25:00,
2013-01-01 21:29:00,28.5,13.1,29.91,West,275,11.0,19.0,52,0.00,,---,0.00,0.00,VWS V14.01,2013-01-02 02:29:00,
2013-01-01 21:30:00,28.5,13.6,29.91,NNW,329,12.0,19.0,53,0.00,,---,0.00,0.00,VWS V14.01,2013-01-02 02:30:00,
2013-01-01 21:34:00,28.4,13.5,29.91,NW,312,9.0,18.0,53,0.00,,---,0.00,0.00,VWS V14.01,2013-01-02 02:34:00,
2013-01-01 21:35:00,28.4,13.9,29.91,WNW,286,10.0,18.0,54,0.00,,---,0.00,0.00,VWS V14.01,2013-01-02 02:35:00,
2013-01-01 21:39:00,28.4,14.3,29.91,NW,325,10.0,15.0,55,0.00,,---,0.00,0.00,VWS V14.01,2013-01-02 02:39:00,
2013-01-01 21:40:00,28.3,14.2,29.91,NW,309,9.0,15.0,55,0.00,,---,0.00,0.00,VWS V14.01,2013-01-02 02:40:00,
2013-01-01 21:44:00,28.1,13.6,29.91,NW,320,9.0,15.0,54,0.00,,---,0.00,0.00,VWS V14.01,2013-01-02 02:44:00,
2013-01-01 21:45:00,28.1,14.0,29.91,NW,317,7.0,15.0,55,0.00,,---,0.00,0.00,VWS V14.01,2013-01-02 02:45:00,
2013-01-01 21:49:00,28.0,13.9,29.91,NNW,333,11.0,15.0,55,0.00,,---,0.00,0.00,VWS V14.01,2013-01-02 02:49:00,
2013-01-01 21:50:00,27.9,13.8,29.92,NNW,335,10.0,15.0,55,0.00,,---,0.00,0.00,VWS V14.01,2013-01-02 02:50:00,
2013-01-01 21:54:00,27.8,13.8,29.91,WNW,288,13.0,14.0,55,0.00,,---,0.00,0.00,VWS V14.01,2013-01-02 02:54:00,
2013-01-01 21:55:00,27.6,12.7,29.91,NNW,344,11.0,16.0,53,0.00,,---,0.00,0.00,VWS V14.01,2013-01-02 02:55:00,
2013-01-01 21:59:00,27.6,12.3,29.92,NW,315,9.0,15.0,52,0.00,,---,0.00,0.00,VWS V14.01,2013-01-02 02:59:00,
2013-01-01 22:00:00,27.5,12.6,29.92,NNW,329,17.0,17.0,53,0.00,,---,0.00,0.00,VWS V14.01,2013-01-02 03:00:00,
2013-01-01 22:04:00,27.4,12.1,29.92,NW,323,8.0,17.0,52,0.00,,---,0.00,0.00,VWS V14.01,2013-01-02 03:04:00,
2013-01-01 22:05:00,27.3,12.0,29.92,NNW,329,11.0,17.0,52,0.00,,---,0.00,0.00,VWS V14.01,2013-01-02 03:05:00,
2013-01-01 22:09:00,27.2,11.5,29.92,NNW,331,13.0,19.0,51,0.00,,---,0.00,0.00,VWS V14.01,2013-01-02 03:09:00,
2013-01-01 22:10:00,27.2,11.5,29.92,NNW,333,15.0,19.0,51,0.00,,---,0.00,0.00,VWS V14.01,2013-01-02 03:10:00,
2013-01-01 22:14:00,27.2,11.9,29.92,NNW,342,10.0,16.0,52,0.00,,---,0.00,0.00,VWS V14.01,2013-01-02 03:14:00,
2013-01-01 22:15:00,27.2,11.5,29.92,NW,319,11.0,18.0,51,0.00,,---,0.00,0.00,VWS V14.01,2013-01-02 03:15:00,
2013-01-01 22:19:00,27.2,11.5,29.92,NW,314,10.0,17.0,51,0.00,,---,0.00,0.00,VWS V14.01,2013-01-02 03:19:00,
2013-01-01 22:20:00,27.1,10.9,29.92,NW,311,8.0,17.0,50,0.00,,---,0.00,0.00,VWS V14.01,2013-01-02 03:20:00,
2013-01-01 22:24:00,27.0,10.9,29.93,NW,307,11.0,17.0,50,0.00,,---,0.00,0.00,VWS V14.01,2013-01-02 03:24:00,
2013-01-01 22:25:00,27.0,10.9,29.93,NW,320,9.0,17.0,50,0.00,,---,0.00,0.00,VWS V14.01,2013-01-02 03:25:00,
2013-01-01 22:29:00,26.9,11.2,29.93,WNW,288,9.0,14.0,51,0.00,,---,0.00,0.00,VWS V14.01,2013-01-02 03:29:00,
2013-01-01 22:30:00,26.9,11.2,29.93,WNW,300,11.0,14.0,51,0.00,,---,0.00,0.00,VWS V14.01,2013-01-02 03:30:00,
2013-01-01 22:34:00,26.8,11.1,29.93,NNW,327,11.0,16.0,51,0.00,,---,0.00,0.00,VWS V14.01,2013-01-02 03:34:00,
2013-01-01 22:35:00,26.8,11.6,29.93,WNW,290,9.0,16.0,52,0.00,,---,0.00,0.00,VWS V14.01,2013-01-02 03:35:00,
2013-01-01 22:39:00,26.8,11.1,29.94,North,9,15.0,17.0,51,0.00,,---,0.00,0.00,VWS V14.01,2013-01-02 03:39:00,
2013-01-01 22:40:00,26.8,10.7,29.94,NW,311,10.0,17.0,50,0.00,,---,0.00,0.00,VWS V14.01,2013-01-02 03:40:00,
2013-01-01 22:44:00,26.7,10.1,29.94,NW,315,11.0,19.0,49,0.00,,---,0.00,0.00,VWS V14.01,2013-01-02 03:44:00,
2013-01-01 22:45:00,26.7,10.6,29.94,NW,313,11.0,19.0,50,0.00,,---,0.00,0.00,VWS V14.01,2013-01-02 03:45:00,
2013-01-01 22:49:00,26.6,10.5,29.94,WNW,303,10.0,14.0,50,0.00,,---,0.00,0.00,VWS V14.01,2013-01-02 03:49:00,
2013-01-01 22:50:00,26.6,10.0,29.94,NW,306,9.0,15.0,49,0.00,,---,0.00,0.00,VWS V14.01,2013-01-02 03:50:00,
2013-01-01 22:54:00,26.6,10.0,29.94,NW,311,8.0,17.0,49,0.00,,---,0.00,0.00,VWS V14.01,2013-01-02 03:54:00,
2013-01-01 22:55:00,26.6,10.5,29.95,WNW,287,13.0,17.0,50,0.00,,---,0.00,0.00,VWS V14.01,2013-01-02 03:55:00,
2013-01-01 22:59:00,26.5,10.4,29.94,WNW,298,11.0,16.0,50,0.00,,---,0.00,0.00,VWS V14.01,2013-01-02 03:59:00,
2013-01-01 23:00:00,26.5,10.8,29.94,WNW,302,11.0,17.0,51,0.00,,---,0.00,0.00,VWS V14.01,2013-01-02 04:00:00,
2013-01-01 23:04:00,26.4,11.2,29.94,NW,309,7.0,16.0,52,0.00,,---,0.00,0.00,VWS V14.01,2013-01-02 04:04:00,
2013-01-01 23:05:00,26.4,11.6,29.94,NW,312,11.0,16.0,53,0.00,,---,0.00,0.00,VWS V14.01,2013-01-02 04:05:00,
2013-01-01 23:09:00,26.3,11.5,29.93,NW,315,8.0,12.0,53,0.00,,---,0.00,0.00,VWS V14.01,2013-01-02 04:09:00,
2013-01-01 23:10:00,26.3,11.5,29.93,WNW,299,9.0,14.0,53,0.00,,---,0.00,0.00,VWS V14.01,2013-01-02 04:10:00,
2013-01-01 23:14:00,26.2,11.8,29.94,WNW,298,4.0,14.0,54,0.00,,---,0.00,0.00,VWS V14.01,2013-01-02 04:14:00,
2013-01-01 23:15:00,26.1,11.7,29.94,WNW,288,13.0,14.0,54,0.00,,---,0.00,0.00,VWS V14.01,2013-01-02 04:15:00,
2013-01-01 23:19:00,26.2,12.2,29.94,NW,305,8.0,14.0,55,0.00,,---,0.00,0.00,VWS V14.01,2013-01-02 04:19:00,
2013-01-01 23:20:00,26.1,11.3,29.94,West,275,13.0,18.0,53,0.00,,---,0.00,0.00,VWS V14.01,2013-01-02 04:20:00,
2013-01-01 23:24:00,26.0,10.4,29.94,WNW,284,8.0,17.0,51,0.00,,---,0.00,0.00,VWS V14.01,2013-01-02 04:24:00,
2013-01-01 23:25:00,26.0,10.4,29.94,NW,309,11.0,19.0,51,0.00,,---,0.00,0.00,VWS V14.01,2013-01-02 04:25:00,
2013-01-01 23:29:00,26.0,10.4,29.94,NW,318,9.0,15.0,51,0.00,,---,0.00,0.00,VWS V14.01,2013-01-02 04:29:00,
2013-01-01 23:30:00,25.9,10.7,29.95,WNW,300,15.0,15.0,52,0.00,,---,0.00,0.00,VWS V14.01,2013-01-02 04:30:00,
2013-01-01 23:34:00,25.8,9.7,29.94,NW,309,10.0,16.0,50,0.00,,---,0.00,0.00,VWS V14.01,2013-01-02 04:34:00,
2013-01-01 23:35:00,25.7,9.2,29.94,WNW,288,8.0,16.0,49,0.00,,---,0.00,0.00,VWS V14.01,2013-01-02 04:35:00,
2013-01-01 23:39:00,25.6,8.6,29.94,NW,315,15.0,22.0,48,0.00,,---,0.00,0.00,VWS V14.01,2013-01-02 04:39:00,
2013-01-01 23:40:00,25.5,8.6,29.94,NW,304,15.0,22.0,48,0.00,,---,0.00,0.00,VWS V14.01,2013-01-02 04:40:00,
2013-01-01 23:44:00,25.4,8.5,29.95,West,281,12.0,18.0,48,0.00,,---,0.00,0.00,VWS V14.01,2013-01-02 04:44:00,
2013-01-01 23:45:00,25.4,8.9,29.94,NW,306,7.0,18.0,49,0.00,,---,0.00,0.00,VWS V14.01,2013-01-02 04:45:00,
2013-01-01 23:49:00,25.4,8.9,29.94,West,273,12.0,18.0,49,0.00,,---,0.00,0.00,VWS V14.01,2013-01-02 04:49:00,
2013-01-01 23:50:00,25.3,8.8,29.95,NW,308,12.0,20.0,49,0.00,,---,0.00,0.00,VWS V14.01,2013-01-02 04:50:00,
2013-01-01 23:54:00,25.3,8.8,29.95,NW,313,7.0,23.0,49,0.00,,---,0.00,0.00,VWS V14.01,2013-01-02 04:54:00,
2013-01-01 23:55:00,25.2,8.7,29.94,NW,304,15.0,23.0,49,0.00,,---,0.00,0.00,VWS V14.01,2013-01-02 04:55:00,
2013-01-01 23:59:00,25.1,8.2,29.94,NW,307,13.0,21.0,48,0.00,,---,0.00,0.00,VWS V14.01,2013-01-02 04:59:00,